| time (UTC) | temp C | wind direction | speed KPH | gust KPH | rain 1hr cm | rain 24hr cm | rain mn cm | humidity % | barometer mb |
| 20260506214526 | 25 | 26 | 16.1 | 29.0 | 0.00 | 0.00 | 0.00 | 86 | 1010.0 |
| 20260506213029 | 26 | 40 | 16.1 | 27.4 | 0.00 | 0.00 | 0.00 | 86 | 1010.0 |
| 20260506211522 | 26 | 51 | 17.7 | 27.4 | 0.00 | 0.00 | 0.00 | 85 | 1010.2 |
| 20260506210023 | 27 | 10 | 14.5 | 25.7 | 0.00 | 0.00 | 0.00 | 85 | 1010.4 |
| 20260506204521 | 27 | 29 | 16.1 | 25.7 | 0.00 | 0.00 | 0.00 | 84 | 1010.3 |
| 20260506203021 | 28 | 5 | 12.9 | 19.3 | 0.00 | 0.00 | 0.00 | 84 | 1010.3 |
| 20260506201520 | 27 | 337 | 12.9 | 22.5 | 0.00 | 0.00 | 0.00 | 84 | 1010.2 |
| 20260506200022 | 28 | 29 | 8.0 | 19.3 | 0.00 | 0.00 | 0.00 | 84 | 1010.3 |
| 20260506194519 | 28 | 313 | 9.7 | 17.7 | 0.00 | 0.00 | 0.00 | 83 | 1010.0 |
| 20260506193016 | 28 | 5 | 4.8 | 9.7 | 0.00 | 0.00 | 0.00 | 85 | 1010.1 |
| 20260506191514 | 28 | 34 | 6.4 | 14.5 | 0.00 | 0.00 | 0.00 | 86 | 1010.3 |
| 20260506190022 | 27 | 58 | 4.8 | 14.5 | 0.00 | 0.00 | 0.00 | 86 | 1010.2 |
| 20260506184516 | 26 | 63 | 6.4 | 12.9 | 0.00 | 0.00 | 0.00 | 88 | 1010.6 |
| 20260506181516 | 25 | 360 | 11.3 | 19.3 | 0.00 | 0.00 | 0.00 | 90 | 1011.1 |
| 20260506180012 | 25 | 360 | 11.3 | 25.7 | 0.00 | 0.00 | 0.00 | 86 | 1011.2 |
| 20260506174510 | 28 | 71 | 3.2 | 12.9 | 0.00 | 0.00 | 0.00 | 87 | 1011.1 |
| 20260506173009 | 28 | 36 | 3.2 | 9.7 | 0.00 | 0.00 | 0.00 | 89 | 1011.3 |
| 20260506171504 | 26 | 66 | 6.4 | 16.1 | 0.00 | 0.00 | 0.00 | 93 | 1011.4 |
| 20260506170100 | 26 | 65 | 8.0 | 16.1 | 0.00 | 0.00 | 0.00 | 96 | 1011.7 |
| 20260506164557 | 25 | 53 | 4.8 | 14.5 | 0.00 | 0.00 | 0.00 | 97 | 1011.8 |
| 20260506163103 | 25 | 15 | 4.8 | 12.9 | 0.00 | 0.00 | 0.00 | 97 | 1012.1 |
| 20260506161558 | 25 | 45 | 3.2 | 12.9 | 0.00 | 0.00 | 0.00 | 97 | 1012.0 |
| 20260506160053 | 25 | 9 | 4.8 | 8.0 | 0.00 | 0.00 | 0.00 | 97 | 1011.7 |
| 20260506154550 | 25 | 66 | 4.8 | 8.0 | 0.00 | 0.00 | 0.00 | 97 | 1011.3 |
| 20260506153047 | 25 | 55 | 4.8 | 9.7 | 0.00 | 0.00 | 0.00 | 98 | 1011.0 |
| 20260506151547 | 25 | 100 | 1.6 | 9.7 | 0.00 | 0.00 | 0.00 | 99 | 1010.8 |
| 20260506150045 | 24 | 74 | 3.2 | 9.7 | 0.00 | 0.00 | 0.00 | 99 | 1010.7 |
| 20260506144559 | 24 | 85 | 3.2 | 9.7 | 0.00 | 0.00 | 0.00 | 100 | 1010.8 |
| 20260506143041 | 24 | 115 | 3.2 | 6.4 | 0.00 | 0.00 | 0.00 | 100 | 1010.4 |
| 20260506141539 | 24 | 121 | 0.0 | 6.4 | 0.00 | 0.00 | 0.00 | 100 | 1010.3 |
| 20260506140037 | 23 | 175 | 0.0 | 4.8 | 0.00 | 0.00 | 0.00 | 100 | 1009.9 |
| 20260506134536 | 23 | 92 | 1.6 | 12.9 | 0.00 | 0.00 | 0.00 | 100 | 1009.6 |
| 20260506133041 | 23 | 101 | 1.6 | 9.7 | 0.00 | 0.00 | 0.00 | 100 | 1009.6 |
| 20260506131536 | 23 | 92 | 6.4 | 11.3 | 0.00 | 0.00 | 0.00 | 100 | 1009.6 |
| 20260506130037 | 23 | 113 | 1.6 | 9.7 | 0.00 | 0.00 | 0.00 | 100 | 1009.8 |
| 20260506124531 | 23 | 108 | 1.6 | 4.8 | 0.00 | 0.00 | 0.00 | 100 | 1009.8 |
| 20260506123030 | 23 | 112 | 0.0 | 6.4 | 0.00 | 0.00 | 0.00 | 100 | 1009.7 |
| 20260506120029 | 23 | 117 | 0.0 | 6.4 | 0.00 | 0.00 | 0.00 | 100 | 1009.4 |
| 20260506114526 | 23 | 157 | 1.6 | 4.8 | 0.00 | 0.00 | 0.00 | 100 | 1009.4 |
| 20260506113024 | 23 | 159 | 1.6 | 3.2 | 0.00 | 0.00 | 0.00 | 100 | 1009.4 |
| 20260506111523 | 23 | 160 | 0.0 | 3.2 | 0.00 | 0.00 | 0.00 | 100 | 1009.2 |
| 20260506110023 | 23 | 160 | 0.0 | 3.2 | 0.00 | 0.00 | 0.00 | 100 | 1009.2 |
| 20260506104526 | 23 | 160 | 0.0 | 3.2 | 0.00 | 0.00 | 0.00 | 100 | 1009.1 |
| 20260506103025 | 23 | 160 | 0.0 | 4.8 | 0.00 | 0.00 | 0.00 | 100 | 1009.0 |
| 20260506101523 | 23 | 159 | 0.0 | 3.2 | 0.00 | 0.00 | 0.00 | 100 | 1009.0 |
| 20260506100020 | 23 | 162 | 0.0 | 8.0 | 0.00 | 0.00 | 0.00 | 100 | 1008.8 |
| 20260506094520 | 23 | 157 | 0.0 | 4.8 | 0.00 | 0.00 | 0.00 | 100 | 1008.6 |
| 20260506093018 | 23 | 166 | 3.2 | 4.8 | 0.00 | 0.00 | 0.00 | 100 | 1008.6 |
| 20260506091518 | 23 | 167 | 0.0 | 4.8 | 0.00 | 0.00 | 0.00 | 99 | 1008.8 |
| 20260506090021 | 23 | 166 | 1.6 | 6.4 | 0.00 | 0.00 | 0.00 | 99 | 1008.8 |
| 20260506084531 | 23 | 173 | 1.6 | 6.4 | 0.00 | 0.00 | 0.00 | 99 | 1008.7 |
| 20260506083013 | 23 | 172 | 1.6 | 9.7 | 0.00 | 0.00 | 0.00 | 99 | 1008.6 |
| 20260506081516 | 23 | 161 | 0.0 | 3.2 | 0.00 | 0.00 | 0.00 | 99 | 1008.7 |
| 20260506073011 | 23 | 159 | 3.2 | 9.7 | 0.00 | 0.00 | 0.00 | 99 | 1008.8 |
| 20260506071509 | 23 | 134 | 1.6 | 8.0 | 0.00 | 0.00 | 0.00 | 99 | 1009.1 |
| 20260506061505 | 23 | 192 | 0.0 | 6.4 | 0.00 | 0.00 | 0.00 | 98 | 1009.4 |
| 20260506050158 | 24 | 121 | 3.2 | 8.0 | 0.00 | 0.00 | 0.00 | 96 | 1009.3 |
| 20260506044558 | 25 | 166 | 3.2 | 6.4 | 0.00 | 0.00 | 0.00 | 95 | 1009.3 |
| 20260506043101 | 25 | 138 | 4.8 | 14.5 | 0.00 | 0.00 | 0.00 | 95 | 1008.9 |
| 20260506041557 | 25 | 171 | 4.8 | 17.7 | 0.00 | 0.00 | 0.00 | 95 | 1008.8 |
| 20260506040054 | 25 | 134 | 4.8 | 17.7 | 0.00 | 0.00 | 0.00 | 94 | 1008.7 |
| 20260506034558 | 25 | 138 | 8.0 | 24.1 | 0.00 | 0.00 | 0.00 | 94 | 1008.5 |
| 20260506033109 | 25 | 136 | 8.0 | 19.3 | 0.00 | 0.00 | 0.00 | 94 | 1008.4 |
| 20260506031554 | 25 | 168 | 3.2 | 12.9 | 0.00 | 0.00 | 0.00 | 94 | 1008.3 |
| 20260506030100 | 25 | 144 | 1.6 | 11.3 | 0.00 | 0.00 | 0.00 | 93 | 1007.9 |
| 20260506024607 | 26 | 139 | 4.8 | 12.9 | 0.00 | 0.00 | 0.00 | 93 | 1007.8 |
| 20260506023057 | 26 | 115 | 3.2 | 9.7 | 0.00 | 0.00 | 0.00 | 92 | 1007.8 |
| 20260506021557 | 26 | 103 | 3.2 | 8.0 | 0.00 | 0.00 | 0.00 | 91 | 1007.6 |
| 20260506020050 | 26 | 113 | 1.6 | 9.7 | 0.00 | 0.00 | 0.00 | 91 | 1007.5 |
| 20260506014550 | 26 | 151 | 1.6 | 8.0 | 0.00 | 0.00 | 0.00 | 91 | 1007.4 |
| 20260506013052 | 27 | 136 | 3.2 | 9.7 | 0.00 | 0.00 | 0.00 | 90 | 1007.1 |
| 20260506011610 | 27 | 144 | 3.2 | 8.0 | 0.00 | 0.00 | 0.00 | 89 | 1007.0 |
| 20260506010048 | 27 | 162 | 3.2 | 11.3 | 0.00 | 0.00 | 0.00 | 88 | 1006.8 |
| 20260506004547 | 27 | 123 | 4.8 | 12.9 | 0.00 | 0.00 | 0.00 | 87 | 1006.6 |
| 20260506003047 | 28 | 167 | 3.2 | 11.3 | 0.00 | 0.00 | 0.00 | 86 | 1006.5 |
| 20260506001546 | 28 | 136 | 4.8 | 14.5 | 0.00 | 0.00 | 0.00 | 85 | 1006.4 |
| 20260506000053 | 29 | 121 | 4.8 | 12.9 | 0.00 | 0.00 | 0.00 | 84 | 1006.1 |
| 20260505234545 | 29 | 124 | 3.2 | 11.3 | 0.00 | 0.00 | 0.00 | 83 | 1006.1 |
| 20260505233045 | 29 | 128 | 4.8 | 12.9 | 0.00 | 0.00 | 0.00 | 83 | 1006.1 |
| 20260505230042 | 30 | 136 | 3.2 | 12.9 | 0.00 | 0.00 | 0.00 | 82 | 1006.0 |
| 20260505224541 | 30 | 164 | 6.4 | 17.7 | 0.00 | 0.00 | 0.00 | 81 | 1006.1 |
| 20260505223016 | 30 | 167 | 3.2 | 12.9 | 0.00 | 0.00 | 0.00 | 81 | 1006.2 |
| 20260505221536 | 30 | 206 | 4.8 | 19.3 | 0.00 | 0.00 | 0.00 | 81 | 1006.3 |
| 20260505220051 | 30 | 171 | 3.2 | 11.3 | 0.00 | 0.00 | 0.00 | 81 | 1006.4 |